Wind_Speed
16 15 14 14 14 13 14 14 14 14 14 13 14 15 15 15 14 13 12 11 10 10 9 8 9 9 8 8 8 8 8 8 9 9 9 9 9 9 9 9 9 8 8 9 9 9 9 8 8
14 14 14 13 14 15 15 15 15 15 14 14 15 15 15 15 14 13 12 11 11 10 9 9 9 9 9 8 8 7 8 8 8 8 8 8 9 9 8 8 8 7 7 8 8 7 7 6 6
13 13 14 14 15 15 15 15 15 15 15 15 15 15 14 14 13 13 12 10 10 9 10 10 9 9 9 8 8 8 8 8 8 8 8 8 8 8 8 8 8 8 7 7 7 6 6 6 5
14 14 14 15 16 16 16 16 15 14 15 15 15 14 14 13 13 12 12 11 10 9 10 10 10 9 9 8 8 8 8 8 8 7 8 7 7 7 8 8 8 8 7 7 7 6 6 5 5
15 15 16 17 17 17 16 16 16 15 15 15 14 14 14 13 13 12 11 10 10 10 10 11 10 10 9 9 8 9 8 8 8 8 7 7 6 6 7 7 7 7 7 7 6 5 5 4 5
15 15 16 17 17 17 17 17 16 16 15 14 14 14 14 13 12 12 11 10 10 10 11 11 10 10 10 9 8 8 8 8 7 7 7 6 6 6 6 6 7 6 6 6 5 5 4 4 4
15 16 17 17 17 17 17 17 16 16 15 14 14 14 14 13 12 12 11 11 11 11 11 11 11 10 9 9 8 8 7 7 7 6 6 6 5 6 6 6 7 6 6 5 5 5 5 5 4
13 14 16 16 17 17 17 17 17 16 15 15 14 14 14 13 12 12 12 12 11 11 11 11 11 10 9 9 8 7 7 7 6 6 5 5 5 5 6 6 6 6 5 5 4 5 5 5 5
11 13 15 16 17 17 17 17 16 15 15 14 15 14 14 13 12 12 12 12 11 11 11 11 10 9 9 9 8 8 7 6 5 5 5 5 4 5 6 7 6 6 5 4 4 5 5 4 4
10 12 14 16 16 17 16 15 15 15 15 14 14 14 13 13 13 13 12 12 12 11 11 10 10 9 9 9 8 7 6 6 6 5 5 5 5 5 6 6 6 6 5 5 4 4 4 4 3
11 11 13 15 15 16 15 14 13 13 14 14 13 13 13 12 12 13 12 12 11 11 11 11 10 10 9 8 8 7 6 6 6 6 5 5 5 5 6 6 6 6 5 4 5 5 4 4 3
10 11 12 13 14 15 15 14 13 13 13 12 12 12 12 12 12 12 12 11 11 11 11 11 11 10 9 8 8 7 6 6 5 5 5 5 5 5 5 6 6 5 4 4 4 5 4 4 3
8 9 10 11 12 12 13 13 12 13 12 11 11 11 11 12 12 12 12 12 11 11 11 10 10 10 9 9 8 8 7 6 5 5 5 5 5 5 5 5 5 5 4 4 4 4 4 4 3
5 5 7 8 9 10 11 11 11 12 11 11 10 10 11 12 12 12 11 11 11 11 11 11 10 9 9 9 8 8 7 7 6 6 5 5 4 5 4 4 4 4 4 4 4 4 4 4 4
3 2 4 5 7 8 9 9 9 10 10 10 10 9 10 10 11 11 10 10 10 9 10 10 10 9 8 8 8 8 8 7 7 6 5 5 4 4 4 3 3 3 4 4 5 5 4 4 4
4 2 1 3 5 6 7 8 7 7 8 8 9 8 8 8 9 9 9 9 9 8 9 9 9 8 7 7 8 7 6 6 6 5 5 4 3 3 2 2 2 3 4 4 5 5 6 5 5
6 5 3 1 0 3 4 5 5 5 6 7 7 7 8 7 8 8 8 8 7 7 7 8 8 7 7 7 7 7 6 6 5 5 4 3 2 2 1 1 1 2 3 4 4 5 5 6 6
9 8 6 4 4 2 1 2 2 4 4 5 6 6 6 5 6 6 7 7 7 6 6 7 6 6 6 6 6 6 6 5 4 4 4 3 2 1 0 1 2 2 3 4 5 5 6 6 7
13 12 10 8 7 6 5 3 3 3 3 4 5 6 6 4 4 5 6 7 7 5 5 5 6 5 5 5 5 5 6 5 4 3 3 3 2 1 1 1 2 3 4 5 6 6 7 7 8
15 15 14 12 12 11 9 7 6 5 5 4 4 5 6 4 4 5 5 6 6 4 4 5 5 5 5 5 5 5 5 5 4 4 3 3 3 3 2 2 3 4 4 5 6 7 8 9 9
17 17 17 17 16 14 12 10 8 7 6 6 5 5 5 4 4 5 5 5 5 4 3 3 4 5 5 5 4 4 4 4 4 3 4 4 3 3 4 4 5 5 5 5 6 7 8 9 9
20 19 19 19 18 17 16 13 10 10 9 8 7 7 6 5 5 5 5 4 5 4 3 3 4 4 5 4 4 3 4 4 3 4 3 4 4 4 4 5 5 6 6 7 7 8 8 9 10
22 22 22 21 21 20 19 17 14 13 12 10 10 10 9 8 7 7 6 6 6 4 4 4 3 3 4 4 4 3 4 4 4 5 5 5 5 6 6 6 6 6 7 7 8 8 8 9 10
24 24 24 24 24 23 21 21 17 15 14 13 13 12 11 9 9 9 8 8 7 6 6 5 4 3 3 4 4 4 5 5 6 6 6 6 6 7 7 7 8 8 8 8 8 9 10 10 11
24 24 25 26 26 24 22 24 21 18 17 15 15 14 12 11 11 11 10 10 9 9 8 7 6 5 5 5 5 6 6 7 7 8 8 8 8 8 8 9 9 9 10 10 10 10 11 12 12
25 26 27 27 26 25 25 26 22 20 19 18 17 16 16 14 14 13 12 11 11 10 9 9 8 7 7 7 7 8 8 9 9 10 10 10 10 10 11 11 11 11 11 11 12 12 12 13 14
26 27 27 28 28 28 27 25 23 22 21 20 19 19 18 17 16 17 16 15 13 13 11 11 11 10 9 9 9 10 10 11 11 11 11 12 12 13 13 13 13 12 13 13 13 14 14 15 15
28 28 29 30 30 30 29 27 24 23 22 22 22 21 20 20 19 18 17 16 15 14 13 13 12 12 12 12 12 12 12 13 13 14 14 14 14 15 15 15 15 15 14 15 15 16 15 16 17
29 29 30 30 31 31 30 28 24 23 23 22 22 21 21 21 20 19 18 18 17 16 15 14 13 14 14 14 14 14 14 14 15 15 16 16 16 16 16 17 16 17 17 17 18 18 18 18 18
29 29 29 31 31 31 31 28 24 24 24 23 22 22 22 21 20 20 20 19 18 17 17 16 16 14 15 16 16 16 16 16 17 17 18 18 18 18 18 18 18 19 19 19 19 19 20 20 21
Wind_Direction
81 80 81 81 79 74 71 72 72 71 70 69 67 63 63 66 69 72 74 79 78 78 86 93 105 109 106 105 103 102 109 112 111 112 110 111 114 118 120 118 119 120 123 127 127 128 128 130 131
83 80 79 80 78 74 71 71 70 68 70 69 67 64 64 67 69 71 74 80 82 83 86 93 99 103 103 106 103 106 113 114 113 112 111 114 116 121 126 125 125 126 128 129 128 128 129 132 131
86 81 79 79 78 76 73 73 73 72 70 68 67 64 65 69 70 72 72 79 83 81 83 89 91 91 94 98 102 110 112 113 115 114 111 115 120 123 127 130 130 132 133 133 130 132 130 133 133
85 83 80 79 79 78 75 75 73 71 69 67 65 65 66 67 68 72 72 77 76 78 81 86 86 87 87 90 99 104 106 109 116 118 117 117 120 124 127 131 129 129 129 133 135 132 128 132 134
89 84 80 79 78 77 77 76 72 68 67 66 64 65 65 65 67 71 73 75 75 74 79 80 83 84 85 91 98 103 104 107 111 114 120 123 124 129 134 134 135 132 134 136 136 135 133 134 132
89 86 82 79 76 75 75 74 72 70 68 66 65 64 64 63 65 71 72 75 76 76 76 78 82 84 87 92 94 97 98 104 107 115 123 129 133 139 142 142 142 141 137 139 143 145 142 142 137
87 85 81 79 75 73 73 70 70 68 66 65 65 64 64 63 64 70 73 75 78 78 78 77 82 84 87 90 93 93 92 97 105 114 124 131 139 148 150 156 154 153 151 147 145 146 153 158 154
84 83 79 80 78 72 71 68 68 68 64 64 65 63 62 62 65 71 75 76 76 79 78 76 79 81 83 89 93 97 96 100 104 113 125 129 135 150 155 158 158 157 155 152 155 155 159 162 165
84 79 80 81 79 72 69 67 67 68 64 65 64 62 58 60 64 73 76 75 75 78 77 73 76 80 80 86 92 93 92 96 101 110 114 116 123 143 151 152 155 159 159 158 156 160 161 159 166
88 78 81 83 81 74 69 66 65 66 64 64 64 61 58 60 66 71 73 73 74 75 74 70 72 78 82 85 89 92 92 96 100 104 112 118 120 136 149 152 153 157 157 154 156 165 165 163 173
85 80 85 85 82 76 73 68 65 66 65 63 62 60 60 61 65 69 72 74 73 72 70 67 68 72 77 79 83 88 94 98 101 100 108 123 128 136 148 154 159 167 167 166 164 174 181 183 190
83 82 85 84 82 78 73 72 67 66 63 61 57 58 61 65 69 68 70 71 71 69 67 67 68 69 72 76 77 81 90 96 100 104 108 121 130 139 149 157 166 177 183 183 181 186 188 195 208
88 83 81 82 82 79 75 70 65 65 64 61 57 57 63 68 68 67 64 65 67 67 65 64 67 69 71 72 72 73 80 92 98 102 109 120 131 139 153 163 167 176 193 208 212 213 213 221 230
106 91 83 76 78 76 71 67 62 61 64 61 59 59 62 64 62 62 61 61 63 64 64 64 66 67 69 70 69 69 73 81 92 98 105 117 127 136 142 160 170 182 199 212 214 220 222 233 241
134 100 81 76 70 71 67 61 58 56 57 60 59 56 61 61 57 57 57 57 59 59 59 60 62 64 65 67 66 68 72 76 85 94 101 111 122 140 145 159 178 202 215 216 216 228 237 246 249
177 187 125 77 63 65 64 56 53 49 48 55 59 56 60 61 56 52 53 51 52 54 53 55 56 59 60 63 61 62 70 77 81 88 95 102 115 132 142 158 189 213 225 225 232 240 243 251 259
209 216 211 190 39 52 54 49 44 33 41 49 51 52 53 50 49 48 45 46 44 46 50 51 50 52 55 55 54 54 64 74 76 81 85 85 102 121 150 199 236 234 228 231 242 254 256 257 258
230 229 228 224 235 258 325 19 15 18 32 35 31 35 43 44 41 40 36 33 33 36 40 44 47 48 50 49 49 49 58 65 66 72 71 63 67 77 190 248 259 256 244 240 248 256 261 264 267
234 235 240 240 248 254 266 274 286 315 339 351 1 9 19 26 28 28 26 22 21 30 29 30 35 41 43 42 44 51 54 55 57 55 46 41 30 10 336 288 276 268 259 251 254 256 261 264 269
238 241 243 246 253 258 259 260 266 282 292 295 309 329 349 360 1 4 12 9 7 15 23 22 28 33 32 30 36 44 43 46 42 37 27 11 359 346 338 313 299 285 275 268 260 257 262 264 265
245 247 246 248 252 256 259 259 262 271 273 278 289 308 332 330 328 337 350 356 358 1 15 15 17 21 23 26 31 31 30 27 23 16 6 1 340 324 323 316 302 297 285 277 274 272 269 267 266
247 248 248 249 249 252 259 259 254 263 267 273 282 290 302 307 307 312 317 319 321 329 340 342 349 6 11 12 17 21 16 6 4 5 359 351 345 332 323 319 311 302 295 287 281 280 276 273 274
247 249 250 249 250 252 255 257 254 261 266 270 275 281 288 295 293 293 294 294 296 300 294 310 323 338 353 0 1 1 357 349 345 345 345 340 332 330 325 321 315 309 304 298 289 283 282 281 279
245 248 250 252 252 254 255 259 259 262 268 269 272 275 281 284 283 282 280 282 285 280 280 285 296 302 316 332 341 341 337 334 329 327 329 329 328 327 320 319 315 310 305 301 297 291 285 285 284
246 247 250 253 255 259 259 261 263 264 267 269 270 267 270 276 275 276 275 279 278 276 273 273 275 279 288 301 313 317 318 320 322 324 321 320 320 322 321 318 313 309 306 300 296 293 288 285 283
249 249 252 257 260 261 261 263 265 265 265 266 267 265 263 267 269 270 272 274 271 268 268 265 263 268 275 283 292 304 309 312 316 318 317 317 315 314 312 308 305 302 302 301 296 291 290 287 286
251 251 253 257 260 260 261 265 265 265 265 264 263 264 265 265 268 269 269 269 266 264 264 259 256 261 267 274 283 293 300 304 305 306 306 307 308 308 307 305 301 299 298 295 294 294 292 289 289
252 252 251 253 258 261 262 264 265 264 265 265 263 261 263 265 267 267 268 265 263 263 259 258 258 258 261 267 277 286 291 296 297 299 300 300 300 301 301 299 299 295 293 293 292 290 290 289 288
252 252 251 253 257 261 264 263 265 263 264 264 263 261 261 262 263 264 267 264 260 260 258 258 260 260 264 270 276 281 286 289 292 295 296 297 297 297 297 297 297 294 292 292 292 291 289 288 288
252 253 253 255 259 262 264 263 263 263 262 261 260 259 259 258 258 260 262 261 260 259 260 262 261 268 268 270 274 279 284 287 290 292 292 293 295 295 295 295 294 293 292 292 290 288 288 286 287
Height
5880 5880 5880 5881 5881 5879 5878 5878 5877 5877 5877 5876 5875 5874 5874 5874 5874 5876 5873 5872 5872 5872 5871 5871 5871 5872 5873 5873 5874 5875 5875 5876 5877 5878 5879 5880 5881 5882 5883 5884 5885 5887 5888 5889 5890 5891 5892 5893 5894
5883 5883 5883 5883 5881 5880 5880 5879 5879 5879 5879 5878 5877 5876 5876 5875 5875 5875 5874 5874 5874 5874 5873 5873 5873 5874 5874 5875 5875 5876 5877 5878 5879 5879 5880 5881 5882 5883 5884 5885 5887 5888 5889 5890 5891 5892 5893 5894 5895
5885 5885 5885 5884 5882 5882 5882 5881 5881 5881 5880 5880 5879 5878 5878 5878 5877 5876 5876 5875 5875 5875 5875 5875 5875 5875 5876 5876 5877 5877 5878 5879 5880 5880 5881 5882 5883 5884 5885 5886 5888 5889 5890 5891 5892 5893 5894 5895 5896
5888 5888 5888 5886 5884 5884 5884 5883 5883 5883 5882 5882 5881 5881 5880 5880 5879 5879 5878 5878 5877 5877 5876 5876 5876 5876 5877 5877 5878 5878 5879 5879 5880 5881 5882 5883 5884 5885 5886 5887 5889 5890 5891 5892 5893 5894 5895 5896 5897
5890 5890 5889 5888 5887 5886 5886 5885 5885 5885 5884 5884 5884 5883 5882 5882 5881 5880 5880 5880 5879 5878 5877 5878 5878 5878 5878 5879 5879 5879 5880 5881 5881 5882 5883 5884 5885 5886 5887 5888 5890 5891 5892 5893 5894 5895 5896 5897 5898
5893 5892 5891 5890 5889 5889 5888 5888 5887 5887 5887 5886 5886 5885 5885 5884 5884 5883 5882 5882 5881 5881 5880 5880 5880 5880 5880 5880 5881 5881 5881 5882 5882 5883 5884 5885 5885 5886 5887 5888 5890 5891 5892 5894 5895 5896 5897 5897 5898
5895 5894 5893 5892 5891 5891 5891 5890 5890 5889 5889 5889 5888 5888 5887 5886 5886 5885 5884 5884 5883 5882 5882 5881 5881 5882 5881 5881 5882 5882 5882 5883 5883 5884 5884 5885 5885 5886 5887 5888 5890 5892 5893 5894 5895 5896 5897 5898 5898
5897 5897 5895 5894 5894 5894 5893 5892 5892 5892 5892 5891 5891 5890 5889 5889 5888 5887 5886 5886 5885 5885 5884 5884 5884 5883 5883 5883 5883 5883 5883 5884 5884 5884 5885 5885 5885 5885 5886 5888 5890 5892 5893 5895 5896 5896 5897 5898 5899
5899 5899 5897 5896 5895 5896 5895 5895 5895 5894 5894 5893 5892 5892 5892 5891 5890 5889 5888 5888 5887 5887 5886 5886 5885 5885 5885 5884 5884 5884 5884 5884 5885 5885 5885 5885 5885 5884 5886 5888 5891 5892 5894 5895 5896 5897 5898 5899 5900
5900 5900 5899 5898 5898 5898 5897 5897 5897 5897 5896 5896 5895 5894 5893 5893 5892 5891 5890 5890 5889 5889 5888 5888 5887 5886 5886 5886 5885 5885 5885 5885 5885 5885 5886 5886 5886 5886 5888 5889 5892 5893 5894 5895 5897 5898 5899 5899 5900
5901 5901 5901 5900 5900 5899 5899 5900 5899 5899 5899 5898 5897 5896 5896 5895 5894 5893 5892 5892 5891 5890 5890 5889 5888 5888 5887 5887 5886 5886 5886 5886 5886 5886 5886 5887 5888 5889 5890 5891 5893 5894 5895 5896 5897 5898 5899 5900 5900
5903 5903 5902 5903 5902 5902 5901 5901 5901 5901 5901 5900 5899 5899 5898 5897 5896 5895 5894 5893 5893 5892 5891 5891 5890 5889 5889 5888 5888 5887 5887 5887 5887 5887 5887 5888 5889 5890 5891 5892 5893 5894 5895 5896 5897 5898 5899 5900 5900
5904 5904 5904 5904 5904 5903 5903 5903 5903 5902 5902 5902 5901 5900 5900 5899 5898 5897 5897 5896 5895 5894 5893 5892 5892 5891 5890 5890 5889 5888 5888 5888 5888 5888 5888 5888 5889 5890 5891 5893 5893 5894 5895 5896 5897 5898 5898 5899 5900
5905 5905 5905 5906 5905 5905 5905 5904 5905 5904 5904 5903 5903 5902 5901 5901 5900 5899 5899 5898 5897 5896 5895 5894 5893 5893 5892 5891 5890 5889 5889 5888 5888 5888 5888 5889 5890 5891 5892 5893 5894 5895 5895 5896 5897 5897 5898 5899 5899
5905 5906 5906 5906 5906 5906 5906 5906 5906 5905 5905 5905 5904 5904 5903 5902 5901 5901 5900 5899 5898 5897 5897 5896 5895 5894 5894 5893 5892 5891 5890 5889 5889 5889 5889 5890 5890 5891 5892 5893 5894 5894 5895 5895 5896 5897 5897 5898 5898
5905 5906 5907 5907 5906 5907 5908 5908 5907 5907 5906 5906 5905 5905 5904 5904 5903 5902 5901 5900 5900 5899 5898 5897 5896 5896 5895 5894 5893 5892 5891 5890 5890 5890 5890 5891 5891 5892 5892 5893 5894 5894 5894 5895 5895 5896 5897 5897 5897
5905 5906 5906 5907 5907 5906 5907 5907 5908 5907 5907 5907 5906 5905 5905 5905 5904 5903 5902 5901 5901 5900 5899 5898 5897 5897 5896 5895 5894 5893 5892 5892 5891 5891 5891 5891 5892 5892 5892 5893 5893 5894 5894 5894 5895 5895 5895 5896 5896
5904 5905 5905 5906 5906 5906 5906 5907 5907 5907 5907 5907 5907 5906 5906 5905 5905 5904 5903 5902 5901 5900 5900 5899 5898 5897 5897 5896 5895 5894 5893 5893 5892 5892 5892 5892 5892 5892 5892 5893 5893 5893 5893 5894 5894 5894 5894 5895 5894
5902 5903 5904 5905 5905 5905 5905 5906 5906 5906 5907 5907 5907 5907 5906 5905 5905 5904 5903 5902 5901 5901 5900 5899 5898 5897 5897 5896 5896 5895 5894 5894 5893 5893 5893 5892 5892 5892 5892 5892 5892 5892 5892 5892 5892 5892 5893 5893 5893
5900 5901 5902 5903 5903 5904 5904 5905 5905 5905 5906 5906 5906 5906 5906 5905 5904 5904 5903 5902 5901 5901 5900 5900 5899 5898 5897 5897 5896 5895 5895 5894 5894 5894 5893 5893 5893 5892 5892 5892 5892 5891 5891 5891 5891 5891 5891 5891 5891
5897 5899 5900 5901 5901 5901 5902 5903 5904 5904 5904 5905 5905 5905 5905 5904 5904 5903 5902 5901 5901 5900 5900 5900 5899 5898 5897 5897 5896 5896 5896 5895 5894 5894 5893 5893 5892 5892 5892 5891 5891 5891 5890 5890 5889 5889 5889 5889 5889
5894 5896 5897 5897 5898 5898 5900 5900 5902 5902 5903 5903 5904 5904 5904 5904 5903 5902 5900 5900 5899 5899 5899 5899 5898 5898 5897 5897 5896 5896 5895 5895 5894 5894 5893 5892 5892 5891 5891 5890 5890 5889 5889 5888 5887 5887 5887 5887 5887
5891 5892 5893 5893 5894 5895 5896 5897 5900 5900 5900 5901 5902 5902 5902 5902 5901 5900 5899 5898 5898 5898 5897 5897 5897 5897 5897 5897 5896 5896 5895 5895 5894 5893 5892 5892 5891 5890 5890 5889 5888 5888 5887 5886 5885 5885 5884 5884 5884
5887 5888 5888 5889 5890 5891 5893 5894 5895 5897 5898 5898 5899 5899 5899 5899 5899 5898 5897 5897 5896 5896 5896 5896 5896 5896 5896 5896 5896 5895 5895 5894 5893 5893 5892 5891 5890 5889 5888 5887 5887 5886 5885 5884 5883 5883 5882 5882 5881
5883 5884 5884 5884 5885 5887 5889 5889 5892 5894 5894 5894 5895 5895 5895 5896 5896 5895 5895 5895 5895 5894 5894 5894 5894 5895 5895 5895 5894 5894 5894 5893 5892 5891 5890 5889 5889 5888 5887 5886 5885 5884 5883 5882 5881 5880 5880 5879 5878
5878 5879 5880 5881 5881 5883 5883 5884 5888 5889 5890 5890 5891 5891 5891 5892 5892 5892 5892 5892 5892 5892 5892 5892 5892 5892 5893 5893 5893 5892 5892 5891 5890 5890 5889 5888 5887 5886 5885 5884 5883 5882 5881 5879 5879 5878 5877 5876 5875
5872 5873 5875 5875 5875 5876 5878 5880 5882 5883 5885 5885 5886 5887 5887 5888 5888 5888 5889 5889 5888 5888 5889 5889 5889 5890 5890 5890 5890 5890 5889 5889 5888 5887 5887 5886 5885 5883 5882 5881 5880 5879 5878 5877 5876 5875 5873 5872 5872
5867 5868 5868 5869 5869 5869 5872 5874 5877 5878 5879 5881 5881 5882 5883 5883 5884 5884 5884 5885 5885 5885 5886 5885 5886 5886 5887 5887 5887 5887 5887 5886 5885 5885 5884 5883 5882 5881 5879 5878 5877 5876 5874 5873 5872 5871 5870 5869 5868
5861 5862 5862 5863 5863 5864 5865 5870 5871 5873 5874 5875 5876 5876 5878 5878 5879 5880 5880 5880 5881 5881 5882 5881 5882 5881 5882 5883 5884 5883 5883 5883 5882 5881 5880 5879 5878 5877 5876 5875 5873 5872 5871 5869 5868 5867 5865 5864 5863
5854 5855 5856 5857 5857 5858 5858 5864 5866 5866 5867 5869 5870 5871 5872 5872 5873 5874 5875 5875 5876 5877 5877 5878 5878 5878 5878 5879 5879 5879 5879 5879 5878 5877 5876 5875 5874 5873 5872 5870 5869 5868 5866 5865 5863 5862 5861 5859 5858